Starlink 33566

operational
NORAD ID: 62100 Int'l Des: 2024-220 Owner: SPXS Country: US Constellation: starlink
LEOCIRCULAR

About Starlink 33566

Description loading...

Live Position

Loading 3D Globe...

Upcoming Passes

Altitude History

Altitude vs Time

uPlot chart will show altitude changes over time

Two-Line Element Set

1 62100U 24220N 25351.25532999 .00034931 00000-0 12713-2 0 9995
2 62100 43.0026 296.3840 0001714 263.8826 96.1830 15.27619814 60755
Epoch: Dec 17, 2025 • Age: 20 hours

Current Status

Altitude 488.0 km
Velocity 7.62 km/s
Sub-Earth Point -24.55°S, 140.04°E
Launch Date Nov 25, 2024
Age 1 years
Type internet

Technical Details

Classification Payload
Mass 530.00 kg
Dry Mass 500.00 kg
Total Mass 530.00 kg
Length 0.30 m
Diameter 4.10 m
Span 29.00 m
Shape Box + pan
Manufacturer SPXS
Bus Type Starlink V2MO
Phase Status In Orbit
Owner/State SPXS/US

Large Constellations

Loading constellations...